Notices

What's New in latest Release from April 7th, 2021:

- Updated Glossary, including Speed of Maximum Gust, and Total Hourly Precipitation

- Updated national and regional climate services offices contacts and prices information

- Addition of station inventory lists for 1981-2010, 1971-2000, and 1961-1990 Normals.

If you haven't already, please take our survey and provide feedback about our website: https://eccc.sondage-survey.ca/f/LanguageSelection.aspx?s=442ca660-fcf1-47c0-95a9-59707d6fd709

Hourly Data Report for April 04, 2003

TORONTO CITY
ONTARIO

43°40'00.000" N
79°24'00.000" W
112.50 m
6158355
71508
XTO

Download Data

Hourly Data (April 2003)
Hourly Data Report for April 4, 2003
TIME
LST
Temp Definition
°C
Dew Point Definition
°C
Rel Hum Definition
%
Precip. Amount Definition
mm

Wind Dir Definition
10's deg

Wind Spd Definition
km/h
Visibility Definition
km
Stn Press Definition
kPa
Hmdx Definition


Wind Chill Definition


Weather Definition


00:00 -2.5 -4.0 89   LegendMM LegendMM LegendMM 100.33     LegendNANA
01:00 -2.9 -4.4 89   LegendMM LegendMM LegendMM 100.30     LegendNANA
02:00 -2.7 -4.3 89   LegendMM LegendMM LegendMM 100.29     LegendNANA
03:00 -2.8 -4.6 87   LegendMM LegendMM LegendMM 100.25     LegendNANA
04:00 -3.2 -4.4 91   LegendMM LegendMM LegendMM 100.23     LegendNANA
05:00 -3.4 -4.6 91   LegendMM LegendMM LegendMM 100.28     LegendNANA
06:00 -3.5 -4.4 93   LegendMM LegendMM LegendMM 100.29     LegendNANA
07:00 -3.2 -5.1 87   LegendMM LegendMM LegendMM 100.17     LegendNANA
08:00 -2.8 -5.4 82   LegendMM LegendMM LegendMM 100.28     LegendNANA
09:00 -2.6 -6.0 77   LegendMM LegendMM LegendMM 100.29     LegendNANA
10:00 -2.5 -7.1 71   LegendMM LegendMM LegendMM 100.31     LegendNANA
11:00 -2.7 -6.3 76   LegendMM LegendMM LegendMM 100.28     LegendNANA
12:00 -3.2 -6.6 77   LegendMM LegendMM LegendMM 100.20     LegendNANA
13:00 -3.0 -6.2 79   LegendMM LegendMM LegendMM 100.18     LegendNANA
14:00 -2.8 -6.9 73   LegendMM LegendMM LegendMM 100.15     LegendNANA
15:00 -2.6 -8.2 65   LegendMM LegendMM LegendMM 100.12     LegendNANA
16:00 -2.6 -7.8 67   LegendMM LegendMM LegendMM 100.17     LegendNANA
17:00 -2.9 -8.1 67   LegendMM LegendMM LegendMM 100.07     LegendNANA
18:00 -3.5 -7.5 74   LegendMM LegendMM LegendMM 100.06     LegendNANA
19:00 -3.6 -7.3 75   LegendMM LegendMM LegendMM 100.05     LegendNANA
20:00 -3.8 -7.5 75   LegendMM LegendMM LegendMM 99.97     LegendNANA
21:00 -3.5 -7.7 73   LegendMM LegendMM LegendMM 99.91     LegendNANA
22:00 -3.3 -7.2 74   LegendMM LegendMM LegendMM 99.80     LegendNANA
23:00 -3.5 -6.5 80   LegendMM LegendMM LegendMM 99.67     LegendNANA

Notes on Data Quality.

Legend

  • E = Estimated
  • M = Missing
  • NA = Not Available*
  • [empty] = Indicates an unobserved value
Date modified: